Location: Caltech
(34.1382°N, 118.1253°W)
Time: 07:21:44
(UTC-07:00)

ALOS - Visible Passes

Search period start: 02 August 2015 00:00
Search period end: 12 August 2015 00:00
Orbit: 686 x 688 km, 97.9° (Epoch: 02 August)

Date Brightness Start Highest point End Pass type
(mag) Time Alt. Az. Time Alt. Az. Time Alt. Az.
02 Aug 2.2 21:01:04 14° SSE 21:05:00 68° ENE 21:09:40 10° N visible
03 Aug 3.2 21:39:30 16° SSW 21:42:58 44° W 21:47:25 10° NNW visible
04 Aug 2.9 20:39:23 11° SE 20:43:30 39° ENE 20:47:52 10° N visible
04 Aug 4.7 22:18:06 10° SW 22:21:11 17° W 22:24:05 10° NW visible
05 Aug 2.3 21:17:50 18° S 21:21:22 78° WSW 21:26:03 10° NNW visible
06 Aug 3.6 20:18:28 10° ESE 20:22:05 23° ENE 20:25:48 10° NNE visible
06 Aug 4.0 21:56:16 15° SSW 21:59:26 29° W 22:03:27 10° NW visible
07 Aug 2.3 20:56:10 16° SSE 20:59:51 60° ENE 21:04:28 10° N visible
07 Aug 5.1 22:36:42 10° WSW 22:37:48 10° W 22:38:33 10° W visible
08 Aug 3.0 21:34:36 19° S 21:37:46 50° W 21:42:19 10° NNW visible
09 Aug 3.0 20:34:30 12° SE 20:38:21 34° ENE 20:42:37 10° N visible
09 Aug 4.6 22:13:04 12° SW 22:15:57 19° W 22:19:10 10° NW visible
10 Aug 2.2 21:12:57 20° SSE 21:16:11 88° WSW 21:20:53 10° NNW visible
11 Aug 3.7 20:13:32 10° ESE 20:16:55 21° ENE 20:20:27 10° NNE visible
11 Aug 3.8 21:51:24 18° SSW 21:54:13 32° W 21:58:23 10° NNW visible
